�������l�o���
Date,Time,MP-1(��Sv/h),MP-2(��Sv/h),MP-3(��Sv/h),MP-4(��Sv/h),MP-5(��Sv/h),MP-6(��Sv/h),MP-7(��Sv/h),����,����(m/s),���J
2023/12/31,00:00,0.151,0.136,0.214,0.204,0.210,0.123,0.079,�k��,2.9,��
2023/12/31,00:10,0.151,0.137,0.214,0.205,0.211,0.122,0.079,�k�k��,4.1,��
2023/12/31,00:20,0.150,0.137,0.215,0.203,0.209,0.121,0.079,�k�k��,4.1,��
2023/12/31,00:30,0.150,0.137,0.215,0.204,0.210,0.122,0.079,�k�k��,3.9,��
2023/12/31,00:40,0.150,0.136,0.214,0.205,0.210,0.122,0.079,�k�k��,5.1,��
2023/12/31,00:50,0.150,0.136,0.214,0.204,0.210,0.123,0.078,�k��,5.4,��
2023/12/31,01:00,0.151,0.137,0.215,0.203,0.211,0.121,0.080,�k��,4.3,�L
2023/12/31,01:10,0.151,0.136,0.215,0.205,0.211,0.122,0.078,�k��,3.5,�L
2023/12/31,01:20,0.150,0.137,0.214,0.204,0.210,0.122,0.078,�k��,3.2,��
2023/12/31,01:30,0.152,0.138,0.215,0.205,0.211,0.122,0.080,�k��,3.1,��
2023/12/31,01:40,0.151,0.137,0.213,0.205,0.212,0.122,0.079,�k�k��,3.3,��
2023/12/31,01:50,0.151,0.137,0.215,0.205,0.210,0.122,0.078,�k�k��,3.8,��
2023/12/31,02:00,0.151,0.137,0.215,0.205,0.211,0.123,0.079,�k�k��,2.6,��
2023/12/31,02:10,0.152,0.139,0.215,0.206,0.211,0.123,0.079,�k��,2.4,��
2023/12/31,02:20,0.151,0.138,0.215,0.205,0.210,0.123,0.079,�k��,2.4,��
2023/12/31,02:30,0.152,0.137,0.214,0.205,0.211,0.121,0.079,���k��,1.4,��
2023/12/31,02:40,0.151,0.138,0.214,0.205,0.210,0.123,0.079,�k��,1.2,��
2023/12/31,02:50,0.152,0.137,0.214,0.205,0.210,0.123,0.078,�k�k��,1.1,��
2023/12/31,03:00,0.151,0.138,0.215,0.204,0.212,0.123,0.080,�k�k��,1.1,��
2023/12/31,03:10,0.152,0.137,0.215,0.205,0.211,0.122,0.080,�k�k��,1.3,��
2023/12/31,03:20,0.151,0.138,0.216,0.206,0.212,0.122,0.079,�k�k��,2.1,��
2023/12/31,03:30,0.152,0.138,0.216,0.206,0.212,0.122,0.080,�k�k��,3.2,��
2023/12/31,03:40,0.152,0.138,0.216,0.205,0.210,0.123,0.079,�k�k��,3.7,��
2023/12/31,03:50,0.151,0.138,0.216,0.205,0.211,0.122,0.080,�k��,3.1,��
2023/12/31,04:00,0.152,0.138,0.215,0.206,0.211,0.123,0.079,�k�k��,2.7,��
2023/12/31,04:10,0.152,0.138,0.216,0.206,0.211,0.123,0.079,�k�k��,3.3,��
2023/12/31,04:20,0.152,0.137,0.215,0.205,0.211,0.123,0.079,�k,2.5,��
2023/12/31,04:30,0.152,0.138,0.215,0.206,0.210,0.123,0.080,�k,3.7,��
2023/12/31,04:40,0.151,0.138,0.216,0.205,0.210,0.123,0.079,�k�k��,4.7,��
2023/12/31,04:50,0.152,0.137,0.216,0.205,0.212,0.122,0.079,�k�k��,4.6,��
2023/12/31,05:00,0.151,0.136,0.215,0.206,0.211,0.123,0.079,�k�k��,5.1,��
2023/12/31,05:10,0.151,0.138,0.214,0.206,0.210,0.123,0.079,�k�k��,5.7,��
2023/12/31,05:20,0.151,0.137,0.214,0.205,0.210,0.122,0.079,�k�k��,4.5,��
2023/12/31,05:30,0.152,0.138,0.215,0.204,0.211,0.123,0.079,�k,4.0,��
2023/12/31,05:40,0.151,0.137,0.215,0.205,0.209,0.122,0.079,�k,3.7,��
2023/12/31,05:50,0.151,0.137,0.215,0.204,0.210,0.122,0.079,�k,2.6,��
2023/12/31,06:00,0.150,0.135,0.216,0.204,0.210,0.123,0.078,�k�k��,2.5,��
2023/12/31,06:10,0.149,0.137,0.214,0.204,0.211,0.122,0.079,�k�k��,2.2,��
2023/12/31,06:20,0.150,0.136,0.213,0.204,0.209,0.123,0.078,�k�k��,1.3,��
2023/12/31,06:30,0.150,0.137,0.214,0.205,0.210,0.122,0.079,-,CALM,��
2023/12/31,06:40,0.150,0.137,0.215,0.204,0.210,0.122,0.078,-,CALM,��
2023/12/31,06:50,0.151,0.135,0.214,0.204,0.210,0.121,0.078,-,CALM,��
2023/12/31,07:00,0.151,0.136,0.215,0.204,0.210,0.122,0.079,�k�k��,1.5,��
2023/12/31,07:10,0.151,0.136,0.215,0.205,0.211,0.122,0.078,�k�k��,1.6,��
2023/12/31,07:20,0.151,0.136,0.214,0.204,0.210,0.121,0.078,�k��,0.9,��
2023/12/31,07:30,0.151,0.137,0.215,0.205,0.209,0.121,0.078,-,CALM,��
2023/12/31,07:40,0.152,0.137,0.214,0.204,0.209,0.122,0.078,-,CALM,��
2023/12/31,07:50,0.152,0.137,0.214,0.204,0.210,0.121,0.078,-,CALM,��
2023/12/31,08:00,0.151,0.137,0.214,0.205,0.210,0.122,0.079,�k,0.5,��
2023/12/31,08:10,0.151,0.137,0.214,0.204,0.210,0.122,0.078,-,CALM,��
2023/12/31,08:20,0.150,0.136,0.214,0.204,0.209,0.122,0.078,��쓌,0.9,��
2023/12/31,08:30,0.150,0.136,0.214,0.205,0.211,0.122,0.078,��,0.9,��
2023/12/31,08:40,0.150,0.136,0.214,0.204,0.210,0.121,0.079,��,0.7,�L
2023/12/31,08:50,0.151,0.137,0.214,0.203,0.211,0.122,0.079,-,CALM,��
2023/12/31,09:00,0.150,0.136,0.214,0.206,0.210,0.122,0.078,-,CALM,��
2023/12/31,09:10,0.151,0.136,0.215,0.204,0.210,0.123,0.079,-,CALM,��
2023/12/31,09:20,0.151,0.137,0.214,0.204,0.210,0.122,0.079,-,CALM,��
2023/12/31,09:30,0.150,0.137,0.215,0.205,0.209,0.122,0.079,-,CALM,��
2023/12/31,09:40,0.152,0.136,0.215,0.204,0.211,0.121,0.079,�k��,1.3,��
2023/12/31,09:50,0.151,0.137,0.215,0.204,0.211,0.121,0.079,�k�k��,1.0,��
2023/12/31,10:00,0.151,0.137,0.214,0.204,0.209,0.122,0.079,�k��,0.9,��
2023/12/31,10:10,0.151,0.137,0.213,0.204,0.211,0.123,0.080,�k�k��,1.7,��
2023/12/31,10:20,0.150,0.136,0.215,0.204,0.209,0.122,0.078,�k,1.5,��
2023/12/31,10:30,0.151,0.137,0.214,0.205,0.212,0.122,0.079,�k,2.1,��
2023/12/31,10:40,0.151,0.137,0.214,0.204,0.210,0.122,0.079,�k�k��,3.1,��
2023/12/31,10:50,0.151,0.137,0.214,0.205,0.211,0.122,0.078,�k�k��,3.2,��
2023/12/31,11:00,0.151,0.138,0.214,0.204,0.210,0.122,0.080,�k�k��,2.3,��
2023/12/31,11:10,0.152,0.138,0.215,0.204,0.211,0.122,0.078,�k�k��,2.0,��
2023/12/31,11:20,0.150,0.136,0.214,0.205,0.212,0.122,0.079,�k,1.0,��
2023/12/31,11:30,0.151,0.138,0.214,0.204,0.210,0.123,0.080,�k�k��,0.7,��
2023/12/31,11:40,0.151,0.136,0.214,0.205,0.211,0.122,0.079,-,CALM,��
2023/12/31,11:50,0.151,0.138,0.214,0.204,0.209,0.123,0.079,�k��,0.7,��
2023/12/31,12:00,0.151,0.136,0.215,0.204,0.211,0.122,0.079,�k�k��,1.1,��
2023/12/31,12:10,0.151,0.137,0.214,0.203,0.208,0.123,0.079,�k��,1.4,��
2023/12/31,12:20,0.150,0.137,0.213,0.203,0.211,0.122,0.079,�k��,1.1,��
2023/12/31,12:30,0.151,0.136,0.214,0.205,0.210,0.122,0.079,�k��,1.6,��
2023/12/31,12:40,0.150,0.138,0.213,0.203,0.211,0.121,0.079,�k�k��,2.0,��
2023/12/31,12:50,0.151,0.137,0.214,0.205,0.210,0.122,0.079,�k�k��,1.2,��
2023/12/31,13:00,0.151,0.137,0.214,0.203,0.209,0.122,0.079,-,CALM,��
2023/12/31,13:10,0.151,0.137,0.214,0.204,0.210,0.122,0.078,�k�k��,1.1,��
2023/12/31,13:20,0.151,0.136,0.214,0.203,0.209,0.122,0.079,�k��,1.1,��
2023/12/31,13:30,0.149,0.137,0.213,0.204,0.210,0.121,0.078,-,CALM,��
2023/12/31,13:40,0.151,0.136,0.214,0.203,0.210,0.121,0.078,-,CALM,��
2023/12/31,13:50,0.150,0.136,0.212,0.202,0.210,0.122,0.077,-,CALM,��
2023/12/31,14:00,0.151,0.136,0.214,0.203,0.209,0.121,0.078,-,CALM,��
2023/12/31,14:10,0.150,0.136,0.214,0.203,0.211,0.121,0.078,-,CALM,��
2023/12/31,14:20,0.150,0.136,0.213,0.204,0.209,0.122,0.078,�k��,0.7,��
2023/12/31,14:30,0.149,0.136,0.215,0.203,0.210,0.122,0.078,�k,0.6,��
2023/12/31,14:40,0.150,0.136,0.213,0.204,0.208,0.122,0.078,-,CALM,��
2023/12/31,14:50,0.151,0.135,0.213,0.202,0.210,0.121,0.078,�k�k��,0.9,��
2023/12/31,15:00,0.149,0.137,0.213,0.203,0.209,0.121,0.077,�k��,1.0,��
2023/12/31,15:10,0.151,0.136,0.213,0.203,0.210,0.121,0.079,�k��,0.9,��
2023/12/31,15:20,0.150,0.136,0.214,0.203,0.209,0.122,0.078,�k��,1.2,��
2023/12/31,15:30,0.151,0.136,0.213,0.204,0.211,0.121,0.078,�k�k��,1.6,��
2023/12/31,15:40,0.150,0.136,0.213,0.204,0.208,0.121,0.078,�k�k��,1.8,��
2023/12/31,15:50,0.150,0.136,0.214,0.204,0.210,0.120,0.077,�k�k��,1.0,��
2023/12/31,16:00,0.150,0.136,0.212,0.204,0.209,0.121,0.078,�k�k��,1.8,��
2023/12/31,16:10,0.151,0.135,0.214,0.204,0.209,0.121,0.078,�k�k��,1.3,��
2023/12/31,16:20,0.151,0.136,0.213,0.205,0.210,0.120,0.078,�k,1.0,��
2023/12/31,16:30,0.149,0.136,0.212,0.203,0.210,0.122,0.078,�k�k��,0.6,��
2023/12/31,16:40,0.150,0.136,0.213,0.205,0.211,0.121,0.078,�k�k��,0.7,�L
2023/12/31,16:50,0.149,0.135,0.213,0.203,0.209,0.122,0.079,-,CALM,��
2023/12/31,17:00,0.149,0.137,0.214,0.203,0.209,0.121,0.078,-,CALM,�L
2023/12/31,17:10,0.150,0.136,0.214,0.205,0.210,0.122,0.078,-,CALM,�L
2023/12/31,17:20,0.150,0.137,0.213,0.203,0.209,0.122,0.079,-,CALM,�L
2023/12/31,17:30,0.151,0.137,0.215,0.205,0.211,0.121,0.078,-,CALM,�L
2023/12/31,17:40,0.152,0.139,0.217,0.206,0.211,0.123,0.079,�k��,4.8,�L
2023/12/31,17:50,0.158,0.145,0.221,0.211,0.216,0.126,0.084,�k��,5.2,�L
2023/12/31,18:00,0.164,0.150,0.226,0.217,0.219,0.132,0.091,�k��,3.5,�L
2023/12/31,18:10,0.167,0.154,0.229,0.217,0.223,0.136,0.095,�k��,2.2,�L
2023/12/31,18:20,0.169,0.155,0.230,0.218,0.224,0.138,0.095,�k��,2.3,�L
2023/12/31,18:30,0.166,0.154,0.230,0.219,0.222,0.138,0.094,�k��,3.6,�L
2023/12/31,18:40,0.166,0.153,0.228,0.217,0.221,0.136,0.093,�k��,3.0,�L
2023/12/31,18:50,0.165,0.151,0.227,0.216,0.220,0.133,0.090,�k��,4.2,�L
2023/12/31,19:00,0.165,0.151,0.226,0.215,0.220,0.133,0.090,���k��,6.1,�L
2023/12/31,19:10,0.166,0.153,0.227,0.218,0.222,0.136,0.093,��,6.1,�L
2023/12/31,19:20,0.168,0.156,0.231,0.221,0.225,0.141,0.098,���k��,5.4,�L
2023/12/31,19:30,0.173,0.158,0.232,0.222,0.228,0.141,0.100,���k��,5.7,�L
2023/12/31,19:40,0.175,0.161,0.235,0.223,0.227,0.144,0.102,��,4.4,�L
2023/12/31,19:50,0.175,0.161,0.237,0.225,0.230,0.149,0.105,�k��,6.3,�L
2023/12/31,20:00,0.176,0.162,0.237,0.228,0.235,0.152,0.109,���k��,3.6,�L
2023/12/31,20:10,0.179,0.163,0.238,0.229,0.236,0.154,0.112,��,4.0,�L
2023/12/31,20:20,0.179,0.165,0.240,0.231,0.239,0.155,0.114,���k��,2.9,�L
2023/12/31,20:30,0.178,0.164,0.238,0.231,0.239,0.155,0.114,���k��,3.9,�L
2023/12/31,20:40,0.177,0.163,0.237,0.230,0.238,0.154,0.112,��,4.5,�L
2023/12/31,20:50,0.174,0.159,0.235,0.228,0.234,0.150,0.110,���k��,5.0,�L
2023/12/31,21:00,0.172,0.157,0.230,0.223,0.232,0.146,0.106,���k��,4.9,�L
2023/12/31,21:10,0.169,0.155,0.229,0.222,0.229,0.144,0.103,�k��,4.9,�L
2023/12/31,21:20,0.168,0.152,0.228,0.219,0.226,0.141,0.102,�k��,4.6,�L
2023/12/31,21:30,0.165,0.153,0.227,0.218,0.224,0.141,0.099,�k��,4.7,�L
2023/12/31,21:40,0.165,0.152,0.225,0.216,0.224,0.139,0.097,�k��,4.3,�L
2023/12/31,21:50,0.164,0.150,0.224,0.215,0.222,0.138,0.096,�k��,4.5,�L
2023/12/31,22:00,0.163,0.149,0.224,0.214,0.221,0.136,0.094,���k��,4.6,�L
2023/12/31,22:10,0.163,0.149,0.222,0.214,0.220,0.135,0.094,�k��,4.4,�L
2023/12/31,22:20,0.161,0.146,0.221,0.212,0.219,0.133,0.091,�k��,5.8,�L
2023/12/31,22:30,0.159,0.144,0.220,0.210,0.217,0.131,0.089,�k��,6.4,��
2023/12/31,22:40,0.157,0.144,0.217,0.208,0.215,0.129,0.087,�k��,7.3,��
2023/12/31,22:50,0.154,0.141,0.215,0.205,0.213,0.126,0.086,�k��,7.6,��
2023/12/31,23:00,0.152,0.139,0.212,0.203,0.212,0.125,0.084,�k��,9.2,��
2023/12/31,23:10,0.151,0.138,0.212,0.202,0.211,0.124,0.082,�k��,8.6,��
2023/12/31,23:20,0.150,0.137,0.211,0.200,0.209,0.123,0.081,�k��,8.7,��
2023/12/31,23:30,0.149,0.135,0.210,0.199,0.209,0.122,0.081,�k��,8.9,��
2023/12/31,23:40,0.148,0.135,0.208,0.200,0.207,0.121,0.079,�k��,8.8,��
2023/12/31,23:50,0.148,0.134,0.209,0.200,0.207,0.120,0.078,�k��,8.1,��
